Regional Weather Roundup
Issued by NWS

Home | Current Version | Previous Version | Graphics & Text | Print | Product List | Glossary On
Versions: 1 2 3 4 5 6 7 8 9 10 11 12 13 14 15 16 17 18 19 20 21 22 23 24 25 26 27 28 29 30 31 32 33 34 35 36 37 38 39 40 41 42 43 44 45 46 47 48 49 50
000
ASUS43 KMKX 161221
RWRWI

WISCONSIN REGIONAL WEATHER ROUNDUP
NATIONAL WEATHER SERVICE MILWAUKEE/SULLIVAN WI
700 AM CDT WED APR 16 2014

NOTE: "FAIR" INDICATES FEW OR NO CLOUDS BELOW 12,000 FEET WITH NO
SIGNIFICANT WEATHER AND/OR OBSTRUCTIONS TO VISIBILITY.

WIZ001-002-006>008-014>016-023>028-161300-
NORTHWEST WISCONSIN

CITY           SKY/WX    TMP DP  RH WIND       PRES   REMARKS
SUPERIOR ARPT  CLOUDY    27  15  61 NE7       30.15R WCI  19
6HR MIN TEMP:  20; 6HR MAX TEMP:  27;

ASHLAND        CLOUDY    22  12  65 NE6       30.17S WCI  14
6HR MIN TEMP:  21; 6HR MAX TEMP:  22;

HAYWARD        LGT SNOW  26  16  65 E6        30.12R WCI  19
6HR MIN TEMP:  19; 6HR MAX TEMP:  27; 6HR PCP: TRACE;

SIREN          LGT SNOW  27  25  93 E8        30.08S VSB 1   WCI  18
6HR MIN TEMP:  27; 6HR MAX TEMP:  30;

RICE LAKE      LGT SNOW  27  25  90 E9G17     30.11  VSB 1   WCI  18
6HR MIN TEMP:  27; 6HR MAX TEMP:  30;

LADYSMITH      LGT SNOW  28  24  83 SE8       30.14S WCI  20
6HR MIN TEMP:  26; 6HR MAX TEMP:  29;

EAU CLAIRE     FLURRIES  29  22  75 E15       30.08F WCI  18
6HR MIN TEMP:  28; 6HR MAX TEMP:  32; 6HR PCP:  0.01;

MENOMONIE      CLOUDY    30  22  72 E18G24    30.06F WCI  18
6HR MIN TEMP:  29; 6HR MAX TEMP:  32;

NEW RICHMOND   CLOUDY    29  23  77 E18G31    30.02S WCI  17
6HR MIN TEMP:  28; 6HR MAX TEMP:  32;

OSCEOLA        CLOUDY    30  24  79 E17G25    30.05S WCI  18
6HR MIN TEMP:  28; 6HR MAX TEMP:  32;

$$

WIZ003>005-009-010-017-018-161300-
NORTH CENTRAL WISCONSIN

CITY           SKY/WX    TMP DP  RH WIND       PRES   REMARKS
WOODRUFF       CLOUDY    19   9  65 SE3       30.15S
6HR MIN TEMP:  13; 6HR MAX TEMP:  19;

RHINELANDER    CLOUDY    17  12  80 E5        30.17R WCI  10
6HR MIN TEMP:   9; 6HR MAX TEMP:  17;

EAGLE RIVER    PTCLDY    16  10  76 CALM      30.17R
6HR MIN TEMP:   7; 6HR MAX TEMP:  16;

LAND O LAKES   CLOUDY     8   5  86 CALM      30.18R
6HR MIN TEMP:   0; 6HR MAX TEMP:   8;

PHILLIPS       CLOUDY    24  15  68 SE6       30.13S WCI  17
6HR MIN TEMP:  19; 6HR MAX TEMP:  24;

TOMAHAWK       CLOUDY    23  15  71 CALM      30.16R
6HR MIN TEMP:  12; 6HR MAX TEMP:  23;

MEDFORD        LGT SNOW  25  22  89 SE7       30.15R VSB 3/4 WCI  17
6HR MIN TEMP:  25; 6HR MAX TEMP:  26;

MERRILL        CLOUDY    25  16  68 CALM      30.18R
6HR MIN TEMP:  15; 6HR MAX TEMP:  25;

$$

WIZ029-030-035-036-043>047-161300-
CENTRAL WISCONSIN

CITY           SKY/WX    TMP DP  RH WIND       PRES   REMARKS
WAUSAU         LGT SNOW  25  19  78 S9        30.19R VSB 1   WCI  15
6HR MIN TEMP:  22; 6HR MAX TEMP:  26;

MOSINEE        LGT SNOW  25  21  86 SE10      30.20R WCI  15
MARSHFIELD     CLOUDY    27  21  78 SE10      30.17R WCI  17
6HR MIN TEMP:  25; 6HR MAX TEMP:  28; 6HR PCP: TRACE;

STEVENS POINT  CLOUDY    23  21  91 SE7       30.22R FOG     WCI  15
6HR MIN TEMP:  15; 6HR MAX TEMP:  24;

WAUPACA        LGT SNOW  30  23  74 S7        30.25R WCI  23
WAUTOMA        CLOUDY    29  21  71 SE5       30.23R WCI  24
6HR MIN TEMP:  22; 6HR MAX TEMP:  29;

WISC RAPIDS    CLOUDY    28  19  69 SE7       30.21R WCI  21
6HR MIN TEMP:  23; 6HR MAX TEMP:  28;

CAMP DOUGLAS   CLOUDY    28  23  80 E9        30.17S WCI  20
$$

WIZ011>013-019>022-031-037>040-048>050-161300-
NORTHEAST WISCONSIN

CITY           SKY/WX    TMP DP  RH WIND       PRES   REMARKS
ANTIGO         CLOUDY    22  15  75 SE10      30.19R WCI  11
6HR MIN TEMP:  16; 6HR MAX TEMP:  22;

STURGEON BAY   MOCLDY    27  18  69 S6        30.29R WCI  20
6HR MIN TEMP:  23; 6HR MAX TEMP:  27;

GREEN BAY      CLOUDY    27  22  81 CALM      30.26R
6HR MIN TEMP:  23; 6HR MAX TEMP:  27;

MANITOWOC      CLOUDY    30  27  88 S10       30.28R WCI  21
6HR MIN TEMP:  21; 6HR MAX TEMP:  30;

APPLETON       MOCLDY    28  23  80 SE7       30.24R WCI  21
CLINTONVILLE   CLOUDY    27  23  86 CALM      30.24R
OSHKOSH        CLOUDY    31  25  78 SE12      30.24R WCI  22
6HR MIN TEMP:  23; 6HR MAX TEMP:  31;

$$

WIZ032>034-041-042-053>061-161300-
SOUTHWEST WISCONSIN

CITY           SKY/WX    TMP DP  RH WIND       PRES   REMARKS
LA CROSSE      CLOUDY    34  18  52 SE16G23   30.07F WCI  24
6HR MIN TEMP:  32; 6HR MAX TEMP:  35;

SPARTA         CLOUDY    32  19  60 E9        30.14F WCI  24
6HR MIN TEMP:  28; 6HR MAX TEMP:  32;

VIROQUA        CLOUDY    31  20  64 SE16      30.08F WCI  20
6HR MIN TEMP:  28; 6HR MAX TEMP:  31;

BOSCOBEL       CLOUDY    35  18  49 VRB6      30.15S WCI  30
6HR MIN TEMP:  28; 6HR MAX TEMP:  35;

PRAIRIE DU CHI CLOUDY    34  19  53 SE15      30.09F WCI  24
6HR MIN TEMP:  30; 6HR MAX TEMP:  34;

PLATTEVILLE    FAIR      32  23  69 SE10      30.14S WCI  24
6HR MIN TEMP:  29; 6HR MAX TEMP:  32;

$$

WIZ056-057-062-063-064-067-068-161300-
SOUTH CENTRAL WISCONSIN

CITY           SKY/WX    TMP DP  RH WIND       PRES   REMARKS
BARABOO/DELLS  CLOUDY    31  20  64 SE8       30.18S WCI  24
6HR MIN TEMP:  28; 6HR MAX TEMP:  31;

LONE ROCK      CLOUDY    32  21  64 E10       30.18S WCI  24
6HR MIN TEMP:  29; 6HR MAX TEMP:  32;

WATERTOWN      CLOUDY    29  23  78 SE5       30.23S WCI  24
6HR MIN TEMP:  24; 6HR MAX TEMP:  29;

MADISON        MOCLDY    31  22  69 SE7       30.21S WCI  24
6HR MIN TEMP:  27; 6HR MAX TEMP:  31;

MIDDLETON      CLOUDY    32  21  65 SE6       30.20S WCI  26
6HR MIN TEMP:  25; 6HR MAX TEMP:  32;

MONROE         PTCLDY    30  23  75 SE8       30.19R WCI  23
6HR MIN TEMP:  27; 6HR MAX TEMP:  30;

JANESVILLE     MOCLDY    30  25  80 SE9       30.22R WCI  22
$$

WIZ051-052-058>065-066-070>072-161300-
SOUTHEAST WISCONSIN

CITY           SKY/WX    TMP DP  RH WIND       PRES   REMARKS
MILWAUKEE      MOCLDY    32  21  64 S7        30.28R WCI  26
6HR MIN TEMP:  24; 6HR MAX TEMP:  32;

WAUKESHA       PTCLDY    28  21  74 SE5       30.27R WCI  23
MILWAUKEE/TIMM MOCLDY    30  19  64 SE6       30.27R WCI  24
RACINE         CLOUDY    32  23  69 S6        30.29R WCI  26
6HR MIN TEMP:  24; 6HR MAX TEMP:  32;

BURLINGTON     PTCLDY    24  21  89 CALM      30.26R
6HR MIN TEMP:  20; 6HR MAX TEMP:  25;

KENOSHA        CLEAR     30  22  72 S8        30.27R WCI  22
6HR MIN TEMP:  24; 6HR MAX TEMP:  30;

FOND DU LAC    CLOUDY    31  26  82 SE9       30.25R WCI  23
6HR MIN TEMP:  26; 6HR MAX TEMP:  31;

SHEBOYGAN      CLOUDY    31  26  82 SE7       30.27R WCI  24
6HR MIN TEMP:  24; 6HR MAX TEMP:  31;

WEST BEND      CLOUDY    32  28  86 SE5       30.26R WCI  27
JUNEAU         CLOUDY    30  22  74 SE7       30.25R WCI  23
6HR MIN TEMP:  26; 6HR MAX TEMP:  30;

$$

LSZ147-162-161300-
LAKE SUPERIOR

STATION/POSITION TIME  TEMP    WIND        PRES    WAVE
                       AIR SEA DIR/SP/G            HT/PER
                 (UTC) (F)     (DEG/KT/KT) (MB)    (FT/S)
DEVILS ISLAND    1200   24        CALM     1023.8R
PORT WING        1100   23      CALM  /  2 1021.3
SAXON HARBOR     1140          160/  1/  5 1022.0R
$$

LMZ867-665-643>646-161300-
LAKE MICHIGAN

STATION/POSITION TIME  TEMP    WIND        PRES    WAVE
                       AIR SEA DIR/SP/G            HT/PER
                 (UTC) (F)     (DEG/KT/KT) (MB)    (FT/S)
NORTHPORT PIER   1100   27     180/  2/  5 1025.1R
SISTER BAY       1123   20        CALM       N/A
KEWAUNEE LAKESHO 1200   27      CALM  /  2 1025.9R
SHEBOYGAN LAKESH 1200   34     150/ 18/ 20 1026.3R
PORT WASHINGTON  1140   35     160/ 14/ 16 1025.4R
MILWAUKEE LAKESH 1200   34     180/  5/  6   N/A
KENOSHA   LAKESH 1200   34     190/  7/ 11   N/A
$$

TC  - TEMPERATURE IN CELSIUS
VSB - VISIBILITY IN STATUTE MILES
WCI - WIND CHILL INDEX
HX  - HEAT INDEX




USA.gov is the U.S. government's official web portal to all federal, state and local government web resources and services.